Location: Chivres
(47.4102°N, 3.4030°E)
Time: 12:29:29
(UTC+00:00)

Daily predictions for brighter satellites

Satellite Brightness Start Highest point End
(mag) Time Altitude Azimuth Time Altitude Azimuth Time Altitude Azimuth
Cosmos 1633 Rocket 3.6 16:26:05 10° N 16:30:07 35° ENE 16:34:07 10° SE
H-2A R/B 2.8 16:26:59 10° SSE 16:30:50 85° ENE 16:34:45 10° NNW
Cosmos 1933 4.1 16:28:46 10° SSE 16:32:25 33° E 16:36:06 10° NNE
Spot 2 4.4 16:28:24 10° SSE 16:33:09 84° ENE 16:38:11 10° NNW
Meteor 2-12 Rocket 4.5 16:28:10 10° N 16:34:19 69° E 16:40:24 10° SSE
Nadezhda 1 Rocket 4.2 16:28:15 10° S 16:34:37 84° W 16:41:05 10° N
Cosmos 2218 Rocket 4.3 16:30:43 10° N 16:36:31 41° ENE 16:42:18 10° SE
Cosmos 2366 rocket 4.4 16:31:40 10° N 16:37:29 40° ENE 16:43:13 10° SE
Meteor 1-25 Rocket 4.4 16:32:52 10° N 16:38:22 49° ENE 16:43:52 10° SSE
Cosmos 1867 3.7 16:32:59 10° SW 16:38:26 85° NW 16:43:56 10° NE
ERS-2 4.0 16:36:53 10° ENE 16:38:37 13° E 16:40:21 10° ESE
Envisat 3.0 16:37:30 10° SSE 16:42:35 84° ENE 16:47:41 10° NNW
Lacrosse 5 rocket 1.0 16:43:08 10° SW 16:46:49 83° NW 16:50:15 11° NE
Cosmos 773 Rocket 4.3 16:43:26 10° S 16:48:28 47° ESE 16:53:33 10° NNE
YAOGAN 6 2.5 16:48:01 10° SSE 16:51:39 84° ENE 16:55:15 10° N
Cosmos 2297 3.9 16:48:14 10° NNW 16:53:56 81° WSW 16:59:39 10° SSE
Cosmos 1606 2.9 16:50:09 10° SSW 16:54:03 78° W 16:57:56 10° N
OE (NEXTSAT) 4.5 16:51:52 10° W 16:55:20 71° S 16:58:30 12° E
AQUARIUS 4.2 16:52:24 10° SSE 16:56:49 60° ENE 17:01:16 10° N
FengYun 1-2 T 4.4 16:51:34 10° SE 16:56:53 51° ENE 17:02:12 10° N
CZ-4B R/B 2.6 16:56:26 14° NE 16:58:18 21° E 17:00:47 10° SSE
SL-16 R/B 2.2 16:52:43 10° SSW 16:58:23 83° ESE 17:04:04 10° NNE
Landsat 5 3.7 16:55:01 10° NNE 16:59:30 89° WNW 17:04:01 10° SSW
BREEZE-M DEB (TANK) 2.2 16:59:39 10° SW 17:02:16 45° SSE 17:03:26 19° E
USA 215 4.5 16:59:20 12° ENE 17:03:49 23° SE 17:08:48 10° S
Cosmos 1500 4.4 17:02:40 10° NNE 17:05:37 21° ENE 17:08:34 10° ESE
SMAP 3.0 17:01:10 10° SSE 17:05:50 83° ENE 17:10:30 10° NNW
Sich 1 4.0 17:03:30 10° NNW 17:07:45 50° W 17:11:55 10° S
YAOGAN 1 4.0 17:09:18 17° ENE 17:09:49 17° ENE 17:12:38 10° NNE
Cosmos 1656 Rocket 4.3 17:04:44 10° NNW 17:09:52 34° NE 17:14:55 10° ESE
CZ-4C R/B 3.7 17:06:57 10° N 17:10:31 57° WNW 17:14:03 10° SSW
Cosmos 1151 Rocket 2.9 17:08:13 10° S 17:12:28 73° E 17:16:44 10° NNE
Cosmos 1470 Rocket 3.6 17:08:27 10° N 17:12:43 55° ENE 17:16:57 10° SSE
CSL-04 DEB 4.4 17:11:02 10° NNE 17:15:11 70° ESE 17:19:25 10° S
Cosmos 864 Rocket 4.4 17:12:14 10° N 17:18:35 77° E 17:24:49 10° SSE
Cosmos 2263 4.4 17:13:25 10° NNW 17:18:52 48° NE 17:24:16 10° SE
Cosmos 1515 Rocket 3.8 17:16:20 10° SSE 17:20:31 45° E 17:24:44 10° NNE
CZ-2C R/B 3.7 17:17:34 10° ESE 17:21:44 28° ENE 17:25:48 10° N
SL-8 Rocket 4.1 17:15:31 10° N 17:21:48 82° W 17:28:04 10° S
Cosmos 482 Debris 4.3 17:20:52 10° W 17:22:30 29° SSW 17:23:46 15° SSE
TIMED 4.4 17:19:34 10° SSW 17:23:55 71° ESE 17:27:39 14° NNE
Cosmos 1238 Rocket 4.0 17:21:26 10° NNE 17:24:50 25° ENE 17:28:45 10° SE
TELKOM 3 3.5 17:23:14 10° WNW 17:25:54 45° N 17:26:18 40° NE
COSMO-SKYMED 1 3.2 17:23:06 17° NE 17:25:59 35° E 17:29:57 10° SSE
X-37B 1.5 17:25:15 10° SW 17:28:15 39° SSE 17:29:28 27° ESE
USA 281 3.6 17:22:54 10° ESE 17:28:54 40° NE 17:34:55 10° NNW
SAR-Lupe-4 4.4 17:29:13 28° E 17:29:33 29° E 17:32:43 10° SSE
Nadezhda 3 Rocket 4.5 17:24:12 10° SSE 17:30:00 38° E 17:35:48 10° NNE
USA 81 4.2 17:26:05 10° N 17:31:23 77° W 17:36:39 10° S
Cosmos 2228 Rocket 3.8 17:29:10 10° SSE 17:33:10 31° E 17:34:29 26° ENE
Helios 1A Rocket 3.7 17:33:26 28° ENE 17:33:26 28° ENE 17:36:39 10° N
Meteor 1-4 Rocket 2.4 17:30:50 10° S 17:34:24 88° E 17:37:26 14° NNE
H-2A R/B 2.9 17:35:17 24° E 17:36:38 27° ENE 17:40:54 10° N
Cosmos 1812 3.6 17:33:36 10° SSE 17:36:35 29° ESE 17:36:35 29° ESE
Cosmos 1821 Rocket 4.1 17:31:24 10° N 17:37:28 50° ENE 17:43:35 10° SSE
USA 267 3.6 17:34:11 22° E 17:38:11 48° NNE 17:44:25 10° NW
Cosmos 1939 Rocket 2.7 17:35:11 10° SSE 17:39:02 66° ENE 17:42:57 10° N
Cosmos 1328 Rocket 3.9 17:36:08 10° SSW 17:40:25 66° W 17:44:47 10° N
Meteor 1-11 Rocket 4.3 17:35:10 10° N 17:40:26 34° ENE 17:45:44 10° SE
CZ-4 R/B 1.9 17:41:26 34° ENE 17:41:26 34° ENE 17:45:03 10° N
Cosmos 44 Rocket 3.6 17:37:22 10° NNW 17:42:23 50° NE 17:45:08 25° ESE
BREEZE-M DEB (TANK) 3.9 17:40:05 10° SSW 17:42:27 16° SSE 17:42:53 16° SE
Cosmos 1933 Rocket 3.5 17:38:19 10° N 17:42:49 77° E 17:47:15 10° SSE
CSL-04 Rocket 4.4 17:44:04 28° ENE 17:44:09 28° ENE 17:48:37 10° N
Cosmos 1602 4.2 17:41:28 10° NNW 17:45:21 62° W 17:49:11 10° S
IRS-1C Rocket 4.0 17:40:11 10° SSE 17:45:25 67° ENE 17:50:40 10° N
SAR-Lupe-1 4.4 17:46:35 43° E 17:46:35 43° E 17:50:01 10° S
Lacrosse 4 Rocket 3.7 17:46:48 10° SE 17:46:59 11° SE 17:46:59 11° SE
Cosmos 1680 Rocket 4.1 17:45:13 10° SSE 17:49:53 33° E 17:50:18 32° E
Cosmos 2237 Rocket 4.2 17:45:51 10° W 17:50:04 21° NW 17:54:19 10° N
SL-24 R/B 3.8 17:49:33 45° ENE 17:50:09 51° E 17:53:43 10° S
CZ-4B R/B 4.4 17:45:36 10° S 17:50:36 42° W 17:55:37 10° NNW
Cosmos 1603 3.6 17:48:25 10° SSW 17:53:58 64° ESE 17:56:56 28° NE
CZ-2D R/B 3.1 17:52:05 10° SSE 17:55:53 72° ENE 17:59:44 10° N
Cosmos 1943 3.2 17:51:47 10° S 17:57:20 60° ESE 17:59:58 31° NE
H-2A R/B 3.8 17:53:57 10° N 17:57:41 31° WNW 18:01:26 10° SW
Cosmos 2369 Rocket 2.5 17:52:59 10° NNW 17:58:40 69° WSW 18:04:15 10° SSE
Cosmos 1538 Rocket 4.2 17:54:07 10° SSW 17:59:29 76° WNW 18:03:44 17° NNE
Cosmos 1943 Rocket 3.4 17:54:35 10° NW 17:59:47 42° WSW 18:05:00 10° S
Meteor 1-5 Rocket 4.2 17:55:05 10° N 18:01:01 75° ENE 18:06:45 10° SSE
Okean O Rocket 3.6 17:58:58 10° SSW 18:02:48 30° W 18:06:43 10° NNW
Cosmos 1782 3.7 17:59:00 10° SSW 18:02:51 49° WNW 18:06:45 10° N
Cosmos 1371 Rocket 4.3 17:58:56 10° N 18:03:40 41° NE 18:03:40 41° NE
Okean-O 2.5 17:59:53 10° SSE 18:04:14 63° ENE 18:08:38 10° N
ISS -2.9 18:03:14 10° WNW 18:05:55 42° NNW 18:05:55 42° NNW
ARGOS 4.0 18:08:32 31° NNE 18:08:32 31° NNE 18:11:59 10° N
CENTAUR R/B 3.0 18:02:13 10° S 18:07:28 35° ESE 18:07:45 35° ESE
Cosmos 2056 Rocket 4.0 18:05:08 10° N 18:09:29 40° NE 18:09:29 40° NE
Cosmos 2112 Rocket 4.5 18:05:27 10° S 18:09:53 41° ESE 18:09:53 41° ESE
ERS-2 2.8 18:10:45 27° N 18:12:28 52° WNW 18:16:02 10° SSW
SKYMED 2 3.6 18:11:43 26° N 18:14:10 76° WNW 18:18:30 10° SSW
NOSS 3-2 (C) 3.9 18:10:24 10° S 18:15:10 37° SE 18:15:10 37° SE
Cosmos 1869 Rocket 3.4 18:13:03 10° N 18:17:33 74° E 18:17:49 71° ESE
BREEZE-M DEB (TANK) 3.5 18:12:09 10° SW 18:19:51 51° SSE 18:19:59 51° SSE
Meteor 1-27 Rocket 4.2 18:16:20 10° SSE 18:20:11 39° SE 18:20:11 39° SE
Meteor 1-10 Rocket 4.0 18:20:24 10° S 18:26:02 84° E 18:28:49 31° NNE
Lacrosse 5 rocket 2.9 18:23:23 10° WNW 18:25:53 22° NNW 18:25:53 22° NNW
Cosmos 1624 Rocket 4.4 18:21:43 10° NNW 18:25:55 48° NNE 18:25:55 48° NNE
Cosmos 371 Rocket 3.8 18:24:24 10° NNW 18:28:00 46° N 18:28:00 46° N
CZ-4B R/B 3.6 18:29:34 19° NW 18:30:28 21° WNW 18:32:56 10° WSW
NOSS 3-2 (A) 3.2 18:34:57 10° SW 18:40:39 86° SE 18:41:27 69° NE
SL-16 R/B 4.2 18:38:55 10° W 18:43:13 22° NW 18:46:58 12° N
Cosmos 1535 Rocket 4.3 18:38:51 10° N 18:45:00 84° E 18:51:08 10° S
YAOGAN 1 3.4 18:46:28 46° NW 18:46:28 46° NW 18:49:47 10° NNW
USA 215 3.1 18:46:42 67° E 18:47:32 76° SE 18:54:04 10° SW
MOS 1 Rocket 3.8 18:52:44 55° NNW 18:53:50 70° WNW 18:59:09 10° SSW
USA 238 DEB 3.5 18:53:25 10° SW 19:00:01 85° NW 19:00:34 76° NNE
USA 238 3.5 18:53:30 10° SW 19:00:07 85° NW 19:00:39 77° NNE
CZ-2C R/B 4.1 18:56:50 10° SSW 19:01:30 39° W 19:06:02 10° NNW
X-37B 4.1 19:01:32 10° W 19:01:44 11° W 19:01:44 11° W
Cosmos 1934 Rocket 4.3 19:00:37 10° NNW 19:06:55 65° W 19:13:07 10° S
USA 281 3.9 19:06:54 10° S 19:13:15 51° WSW 19:19:39 10° NW
H-2A R/B 2.9 19:15:55 46° W 19:15:55 46° W 19:20:47 10° NNW
CZ-4 R/B 3.8 19:17:28 20° WNW 19:17:28 20° WNW 19:19:41 10° NW
USA 267 3.3 19:21:32 75° W 19:21:32 75° W 19:27:33 10° NW
CENTAUR R/B 3.9 19:51:46 10° WSW 19:54:58 33° WSW 19:54:58 33° WSW
